Glendale Luke AFB, AZ

2:59 AM MST on September 18, 2019 (GMT -0700)
Luke Air Force Base

Weather History for KLUF - July, 2019

Change the Weather History Date:

Saturday, July 13, 2019

  Actual Average Record
Temperature  
Mean Temperature 100 °F -  
Max Temperature 108 °F 108 °F 117 °F (1970)
Min Temperature 91 °F 75 °F 58 °F (1944)
Cooling Degree Days 34    
Growing Degree Days 50 (Base 50)    
Moisture  
Dew Point 52 °F    
Average Humidity 21    
Maximum Humidity 29    
Minimum Humidity 14    
Precipitation  
Precipitation 0.00 in - - ()
Sea Level Pressure  
Sea Level Pressure 29.74 in    
Wind  
Wind Speed 8 mph (SW)    
Max Wind Speed 21 mph    
Max Gust Speed 24 mph    
Visibility 10 miles    
Events      
Averages and records for this station are not official NWS values.
T = Trace of Precipitation, MM = Missing Value Source: NWS Daily Summary

Daily Weather History Graph

Daily Weather History Graph

Search for Another Location

Airport or City:

Astronomy

Jul. 13, 2019 Rise Set
Actual Time 5:29 AM MST 7:41 PM MST
Civil Twilight 5:00 AM MST 8:09 PM MST
Nautical Twilight 4:26 AM MST 8:44 PM MST
Astronomical Twilight 3:48 AM MST 9:21 PM MST
Moon 5:08 PM MST (7/13) 2:49 AM MST (7/13)
Length of Visible Light 15h 08m
Length of Day
14h 11m
Waxing Gibbous, 90% of the Moon is Illuminated
Jul 13
Waxing Gibbous
Jul 16
Full
Jul 24
Last Quarter
Jul 31
New
Aug 7
First Quarter

Hourly Weather History & Observations

Time (MST) Temp. Heat Index Dew Point Humidity Pressure Visibility Wind Dir Wind Speed Gust Speed Precip Events Conditions
12:58 AM 95.4 °F - 52.7 °F 24% 29.69 in 10.0 mi WSW 3.5 mph - N/A   Scattered Clouds
1:58 AM 94.5 °F 92.1 °F 53.1 °F 25% 29.69 in 10.0 mi West 3.5 mph - N/A   Mostly Cloudy
2:58 AM 91.4 °F 89.4 °F 54.7 °F 29% 29.69 in 10.0 mi Calm Calm - N/A   Mostly Cloudy
3:58 AM 92.3 °F - 52.3 °F 26% 29.70 in 10.0 mi South 4.6 mph - N/A   Mostly Cloudy
4:58 AM 92.7 °F - 51.6 °F 25% 29.72 in 10.0 mi South 6.9 mph - N/A   Mostly Cloudy
5:58 AM 91.9 °F - 50.0 °F 24% 29.74 in 10.0 mi SSW 9.2 mph - N/A   Scattered Clouds
6:58 AM 94.5 °F - 48.4 °F 21% 29.77 in 10.0 mi South 9.2 mph - N/A   Clear
7:58 AM 97.0 °F - 47.8 °F 19% 29.78 in 10.0 mi SSW 17.3 mph - N/A   Unknown
8:58 AM 98.1 °F - 50.0 °F 20% 29.80 in 10.0 mi SW 13.8 mph - N/A   Clear
9:58 AM 100.0 °F 98.3 °F 54.3 °F 22% 29.80 in 10.0 mi SW 15.0 mph - N/A   Clear
10:58 AM 101.5 °F 99.9 °F 54.1 °F 21% 29.79 in 10.0 mi SW 10.4 mph - N/A   Scattered Clouds
11:58 AM 102.9 °F - 52.7 °F 19% 29.78 in 10.0 mi SSW 5.8 mph - N/A   Scattered Clouds
12:58 PM 105.6 °F - 51.8 °F 17% 29.77 in 10.0 mi SW 10.4 mph 20.7 mph N/A   Scattered Clouds
1:58 PM 106.7 °F - 51.1 °F 16% 29.74 in 10.0 mi SSW 12.7 mph 20.7 mph N/A   Clear
2:58 PM 108.0 °F - 52.0 °F 16% 29.72 in 10.0 mi SW 20.7 mph 24.2 mph N/A   Clear
3:58 PM 107.6 °F - 48.2 °F 14% 29.70 in 10.0 mi SW 15.0 mph - N/A   Clear
4:58 PM 107.2 °F 105.6 °F 53.1 °F 17% 29.68 in 10.0 mi SW 17.3 mph - N/A   Clear
5:58 PM 107.2 °F - 49.6 °F 15% 29.68 in 10.0 mi SW 16.1 mph - N/A   Clear
6:58 PM 105.4 °F - 51.6 °F 17% 29.68 in 10.0 mi SSW 15.0 mph - N/A   Clear
7:58 PM 103.1 °F - 51.3 °F 18% 29.70 in 10.0 mi SSW 11.5 mph - N/A   Mostly Cloudy
8:58 PM 100.8 °F - 50.9 °F 19% 29.73 in 10.0 mi SSW 9.2 mph - N/A   Mostly Cloudy
9:58 PM 97.2 °F 94.9 °F 53.1 °F 23% 29.76 in 10.0 mi SW 6.9 mph - N/A   Clear
10:58 PM 95.5 °F 93.7 °F 55.0 °F 26% 29.78 in 10.0 mi SW 8.1 mph - N/A   Scattered Clouds
11:58 PM 96.4 °F 95.3 °F 56.8 °F 27% 29.80 in 10.0 mi South 10.4 mph - N/A   Mostly Cloudy